Weather in Kamenskiy

Russia / Chelyabinsk Oblast     54°31′32″N   61°03′43″E
temp.,
°C
wind,
m/s
gust,
m/s
humid.,
%
clouds,
%
prec.,
mm/h
press.,
hPa
HPBL,
m
19 june, sat
sat1923:00+10nnw346443 0.0 102063
02:00+9nw336788 0.0 102042
05:00+9nw410669 0.0 1021213
08:00+13nw51052100 0.0 1021618
11:00+13wnw4105686 0.0 1021675
14:00+16nw81157100 0.0 10191183
17:00+13wnw41283100 0.8 1018557
20:00+13wnw51484100 0.3 1017486
20 june, sun
sun2023:00+12wsw41189100 0.8 1015255
02:00+15w61589100 1.1 1012423
05:00+17wnw7168586 1.3 1011652
08:00+20nw9147969 0.1 10111039
11:00+23nw1014545 0.1 10111970
14:00+23nw1115321 0.0 10112345
17:00+22nw813340 0.0 10132347
20:00+18nw814420 0.0 1015814
21 june, mon
mon2123:00+14nw613445 0.0 1017420
02:00+10nw412581 0.0 1019273
05:00+10nw513545 0.0 1020413
08:00+13nnw811475 0.0 10211081
11:00+16n8103958 0.0 10221503
14:00+19n79335 0.0 10211846
17:00+20nne683218 0.0 10211925
20:00+17ene2251100 0.0 102119
22 june, tue
tue2223:00+12sw225662 0.0 102210
02:00+14sw2251100 0.0 102132
05:00+12w335834 0.0 102034
08:00+18w355397 0.0 1020287
11:00+20wnw366197 0.0 1018745
14:00+27nnw71148100 0.0 10152423
17:00+24nne68654 0.5 1016859
20:00+21ene117943 0.8 101531
23 june, wed
wed2323:00+16ene479628 1.8 1016143
02:00+15nne499191 0.0 1019400
05:00+13nne389360 0.0 1020226
08:00+15ne467079 0.0 1022504
11:00+18ne34466 0.0 10221297
14:00+21nne23395 0.0 10211763
17:00+22ne23385 0.0 10201563
20:00+19ese235280 0.0 101949